DW5444 Weather Reports


time (UTC)temp
C
wind
direction
speed
KPH
gust
KPH
rain 1hr
cm
rain 24hr
cm
rain mn
cm
humidity
%
barometer
mb
20260906224529 13 333 0.0 8.0 0.00 0.46 0.46 68 1014.8
20260906223029 13 345 1.6 9.7 0.00 0.46 0.46 67 1014.7
20260906221527 14 74 3.2 11.3 0.00 0.46 0.46 66 1014.6
20260906220026 14 331 6.4 14.5 0.00 0.46 0.46 66 1014.3
20260906214531 14 61 1.6 14.5 0.00 0.46 0.46 65 1014.3
20260906213026 15 353 6.4 16.1 0.00 0.46 0.46 64 1014.3
20260906211525 15 319 4.8 12.9 0.00 0.46 0.46 64 1014.1
20260906210033 14 12 4.8 16.1 0.00 0.46 0.46 62 1014.1
20260906204524 15 338 6.4 16.1 0.00 0.46 0.46 59 1014.1
20260906203022 15 79 4.8 17.7 0.00 0.46 0.46 62 1014.2
20260906201548 14 20 1.6 16.1 0.00 0.46 0.46 63 1014.2
20260906200020 14 77 0.0 12.9 0.00 0.46 0.46 62 1014.2
20260906194519 14 21 1.6 6.4 0.00 0.46 0.46 60 1014.3
20260906193018 14 333 0.0 8.0 0.00 0.46 0.46 64 1014.5
20260906191516 14 123 1.6 8.0 0.00 0.46 0.46 65 1014.4
20260906190019 14 52 0.0 8.0 0.00 0.46 0.46 67 1014.4
20260906184512 13 51 1.6 8.0 0.00 0.46 0.46 70 1014.7
20260906183010 13 168 0.0 3.2 0.00 0.46 0.46 72 1014.6
20260906181518 12 301 1.6 4.8 0.00 0.46 0.46 73 1014.6
20260906180006 12 72 0.0 4.8 0.00 0.46 0.46 73 1014.7
20260906174504 12 43 0.0 8.0 0.00 0.46 0.46 74 1014.8
20260906173005 12 15 0.0 9.7 0.00 0.46 0.46 75 1014.6
20260906171503 12 45 4.8 11.3 0.00 0.46 0.46 77 1014.6
20260906170001 12 87 1.6 6.4 0.00 0.46 0.46 76 1014.5
20260906164600 11 72 1.6 4.8 0.00 0.46 0.46 80 1014.7
20260906163100 11 76 1.6 11.3 0.00 0.46 0.46 79 1014.7
20260906161604 11 322 0.0 6.4 0.00 0.46 0.46 80 1014.7
20260906160057 11 53 0.0 4.8 0.00 0.46 0.46 82 1014.5
20260906154556 10 48 0.0 1.6 0.00 0.46 0.46 85 1014.7
20260906153110 9 69 0.0 3.2 0.08 0.46 0.46 88 1014.6
20260906151555 9 80 0.0 0.0 0.18 0.46 0.46 88 1014.6
20260906150057 8 76 0.0 0.0 0.25 0.46 0.46 89 1014.5
20260906144600 8 78 0.0 9.7 0.33 0.46 0.46 90 1014.7
20260906143056 8 74 0.0 9.7 0.33 0.38 0.38 90 1014.8
20260906141553 8 95 4.8 11.3 0.23 0.25 0.25 90 1015.5
20260906140051 8 169 1.6 3.2 0.20 0.20 0.20 89 1015.1
20260906134548 8 211 0.0 4.8 0.13 0.13 0.13 88 1014.8
20260906133050 8 195 0.0 1.6 0.05 0.05 0.05 87 1014.5
20260906131538 9 215 0.0 3.2 0.03 0.03 0.03 83 1014.3
20260906130040 9 246 0.0 1.6 0.00 0.00 0.00 80 1014.0
20260906124535 9 95 0.0 1.6 0.00 0.00 0.00 79 1014.1
20260906123039 10 78 0.0 6.4 0.00 0.00 0.00 77 1014.0
20260906121541 10 45 0.0 6.4 0.00 0.00 0.00 79 1013.9
20260906120029 10 289 0.0 3.2 0.00 0.00 0.00 81 1013.7
20260906114531 10 282 0.0 0.0 0.00 0.00 0.00 80 1013.7
20260906113025 10 277 0.0 0.0 0.00 0.00 0.00 79 1013.8
20260906111524 10 284 0.0 0.0 0.00 0.00 0.00 79 1013.9
20260906110024 11 238 0.0 3.2 0.00 0.00 0.00 77 1013.8
20260906104521 11 241 0.0 0.0 0.00 0.00 0.00 76 1013.7
20260906103021 11 341 0.0 0.0 0.00 0.00 0.00 75 1014.0
20260906101521 11 90 0.0 0.0 0.00 0.00 0.00 76 1013.8
20260906100023 10 111 0.0 1.6 0.00 0.00 0.00 76 1013.7
20260906094519 10 94 0.0 0.0 0.00 0.00 0.00 76 1013.6
20260906093033 11 100 0.0 1.6 0.00 0.00 0.00 77 1013.6
20260906091521 11 86 0.0 0.0 0.00 0.00 0.00 77 1013.8
20260906090016 11 135 0.0 0.0 0.00 0.00 0.00 77 1014.0
20260906084511 11 107 0.0 0.0 0.00 0.00 0.00 74 1014.1
20260906083010 12 125 0.0 3.2 0.00 0.00 0.00 73 1014.3
20260906081512 12 331 0.0 8.0 0.00 0.00 0.00 70 1014.4
20260906080008 12 85 0.0 4.8 0.00 0.00 0.00 71 1014.4
20260906074506 11 86 0.0 1.6 0.00 0.00 0.00 74 1014.4
20260906073003 11 94 1.6 4.8 0.00 0.00 0.00 73 1014.7
20260906071501 12 217 0.0 1.6 0.00 0.00 0.00 72 1014.7
20260906070122 12 61 0.0 1.6 0.00 0.00 0.00 72 1014.7
20260906064556 12 90 3.2 4.8 0.00 0.00 0.00 73 1014.8
20260906063055 11 104 0.0 0.0 0.00 0.00 0.00 75 1015.1
20260906061618 12 90 0.0 0.0 0.00 0.00 0.00 73 1015.2
20260906060054 12 80 0.0 3.2 0.00 0.00 0.00 71 1015.3
20260906054656 12 92 0.0 4.8 0.00 0.00 0.00 72 1015.3
20260906053056 11 93 0.0 3.2 0.00 0.00 0.00 73 1015.3
20260906051553 11 117 0.0 8.0 0.00 0.00 0.00 71 1015.3
20260906050108 11 85 0.0 1.6 0.00 0.00 0.00 72 1015.4
20260906044552 12 102 1.6 4.8 0.00 0.00 0.00 68 1015.6
20260906043105 12 90 0.0 3.2 0.00 0.00 0.00 69 1015.6
20260906041551 11 109 0.0 1.6 0.00 0.00 0.00 70 1015.4
20260906040110 12 102 0.0 1.6 0.00 0.00 0.00 67 1015.3
20260906034550 12 79 0.0 4.8 0.00 0.00 0.00 65 1015.4
20260906033149 13 97 3.2 4.8 0.00 0.00 0.00 63 1015.5
20260906031549 13 107 0.0 0.0 0.00 0.00 0.00 63 1015.2
20260906030048 13 131 0.0 4.8 0.00 0.00 0.00 63 1015.2
20260906024547 13 87 0.0 1.6 0.00 0.00 0.00 62 1015.1
20260906023102 14 122 0.0 3.2 0.00 0.00 0.00 61 1015.2
20260906021547 15 325 0.0 0.0 0.00 0.00 0.00 59 1015.1
20260906020046 15 29 0.0 8.0 0.00 0.00 0.00 58 1015.0
20260906014556 15 66 0.0 8.0 0.00 0.00 0.00 55 1015.2
20260906013045 16 53 1.6 9.7 0.00 0.00 0.00 54 1015.1
20260906011553 16 329 1.6 12.9 0.00 0.00 0.00 55 1015.1
20260906010044 16 348 4.8 12.9 0.00 0.00 0.00 55 1015.0
20260906004543 17 331 4.8 14.5 0.00 0.00 0.00 53 1015.0
20260906003044 17 66 8.0 17.7 0.00 0.00 0.00 52 1015.0
20260906001542 17 95 6.4 16.1 0.00 0.00 0.00 52 1015.1
20260906000043 17 346 11.3 17.7 0.00 0.00 0.00 52 1015.1
20260905234551 17 343 9.7 20.9 0.00 0.00 0.00 53 1015.1
20260905233040 17 67 9.7 19.3 0.00 0.00 0.00 53 1015.1
20260905231540 17 314 6.4 17.7 0.00 0.00 0.00 53 1015.2
20260905230042 17 320 9.7 20.9 0.00 0.00 0.00 52 1015.2